owner,sensor,date,latitude,longitude,vertical_datum,wind_speed,wind_to_direction,wind_speed_of_gust,qcFlag 
WAVCIS,ioos:station:WAVCIS:CSI03:3,2010-10-01T00:00:00Z,29.4412,-92.0613,10.0,2.658,7.0,,'11111222,11111222,99999999' 
WAVCIS,ioos:station:WAVCIS:CSI03:3,2010-10-01T01:00:00Z,29.4412,-92.0613,10.0,1.932,1.0,,'11111222,11111222,99999999' 
WAVCIS,ioos:station:WAVCIS:CSI03:3,2010-10-01T02:00:00Z,29.4412,-92.0613,10.0,2.281,340.0,,'11111222,11111222,99999999' 
WAVCIS,ioos:station:WAVCIS:CSI03:3,2010-10-01T03:00:00Z,29.4412,-92.0613,10.0,1.3,355.0,,'11111222,11111222,99999999' 
WAVCIS,ioos:station:WAVCIS:CSI03:3,2010-10-01T04:00:00Z,29.4412,-92.0613,10.0,1.691,52.0,,'11111222,11111222,99999999' 
WAVCIS,ioos:station:WAVCIS:CSI03:3,2010-10-01T05:00:00Z,29.4412,-92.0613,10.0,1.168,49.0,,'11111222,11111222,99999999' 
WAVCIS,ioos:station:WAVCIS:CSI03:3,2010-10-01T06:00:00Z,29.4412,-92.0613,10.0,1.657,302.0,,'11111222,11111222,99999999' 
WAVCIS,ioos:station:WAVCIS:CSI03:3,2010-10-01T07:00:00Z,29.4412,-92.0613,10.0,1.976,330.0,,'11111222,11111222,99999999' 
WAVCIS,ioos:station:WAVCIS:CSI03:3,2010-10-01T08:00:00Z,29.4412,-92.0613,10.0,1.349,359.0,,'11111222,11111222,99999999' 
WAVCIS,ioos:station:WAVCIS:CSI03:3,2010-10-01T09:00:00Z,29.4412,-92.0613,10.0,1.588,6.0,,'11111222,11111222,99999999' 
WAVCIS,ioos:station:WAVCIS:CSI03:3,2010-10-01T10:00:00Z,29.4412,-92.0613,10.0,3.295,7.0,,'11111222,11111222,99999999' 
WAVCIS,ioos:station:WAVCIS:CSI03:3,2010-10-01T11:00:00Z,29.4412,-92.0613,10.0,4.07,30.0,,'11111222,11111222,99999999' 
WAVCIS,ioos:station:WAVCIS:CSI03:3,2010-10-01T12:00:00Z,29.4412,-92.0613,10.0,4.611,33.0,,'11111222,11111222,99999999' 
WAVCIS,ioos:station:WAVCIS:CSI03:3,2010-10-01T13:00:00Z,29.4412,-92.0613,10.0,5.351,55.0,,'11111222,11111222,99999999' 
WAVCIS,ioos:station:WAVCIS:CSI03:3,2010-10-01T14:00:00Z,29.4412,-92.0613,10.0,6.531,55.0,,'11111222,11111222,99999999' 
WAVCIS,ioos:station:WAVCIS:CSI03:3,2010-10-01T15:00:00Z,29.4412,-92.0613,10.0,5.157,57.0,,'11111222,11111222,99999999' 
WAVCIS,ioos:station:WAVCIS:CSI03:3,2010-10-01T16:00:00Z,29.4412,-92.0613,10.0,4.113,55.0,,'11111222,11111222,99999999' 
WAVCIS,ioos:station:WAVCIS:CSI03:3,2010-10-01T17:00:00Z,29.4412,-92.0613,10.0,2.293,18.0,,'11111222,11111222,99999999' 
WAVCIS,ioos:station:WAVCIS:CSI03:3,2010-10-01T18:00:00Z,29.4412,-92.0613,10.0,4.636,9.0,,'11111222,11111222,99999999' 
WAVCIS,ioos:station:WAVCIS:CSI03:3,2010-10-01T19:00:00Z,29.4412,-92.0613,10.0,3.841,17.0,,'11111222,11111222,99999999' 
WAVCIS,ioos:station:WAVCIS:CSI03:3,2010-10-01T20:00:00Z,29.4412,-92.0613,10.0,5.111,17.0,,'11111222,11111222,99999999' 
WAVCIS,ioos:station:WAVCIS:CSI03:3,2010-10-01T21:00:00Z,29.4412,-92.0613,10.0,5.57,17.0,,'11111222,11111222,99999999' 
WAVCIS,ioos:station:WAVCIS:CSI03:3,2010-10-01T22:00:00Z,29.4412,-92.0613,10.0,5.372,11.0,,'11111222,11111222,99999999' 
WAVCIS,ioos:station:WAVCIS:CSI03:3,2010-10-01T23:00:00Z,29.4412,-92.0613,10.0,4.872,23.0,,'11111222,11111222,99999999' 
WAVCIS,ioos:station:WAVCIS:CSI03:3,2010-10-02T00:00:00Z,29.4412,-92.0613,10.0,4.674,23.0,,'11111222,11111222,99999999' 
WAVCIS,ioos:station:WAVCIS:CSI03:3,2010-10-02T01:00:00Z,29.4412,-92.0613,10.0,5.342,56.0,,'11111222,11111222,99999999' 
WAVCIS,ioos:station:WAVCIS:CSI03:3,2010-10-02T02:00:00Z,29.4412,-92.0613,10.0,6.724,56.0,,'11111222,11111222,99999999' 
WAVCIS,ioos:station:WAVCIS:CSI03:3,2010-10-02T03:00:00Z,29.4412,-92.0613,10.0,6.33,55.0,,'11111222,11111222,99999999' 
WAVCIS,ioos:station:WAVCIS:CSI03:3,2010-10-02T04:00:00Z,29.4412,-92.0613,10.0,5.294,51.0,,'11111222,11111222,99999999' 
WAVCIS,ioos:station:WAVCIS:CSI03:3,2010-10-02T05:00:00Z,29.4412,-92.0613,10.0,8.25,56.0,,'11111222,11111222,99999999' 
WAVCIS,ioos:station:WAVCIS:CSI03:3,2010-10-02T06:00:00Z,29.4412,-92.0613,10.0,7.65,56.0,,'11111222,11111222,99999999' 
WAVCIS,ioos:station:WAVCIS:CSI03:3,2010-10-02T07:00:00Z,29.4412,-92.0613,10.0,5.526,50.0,,'11111222,11111222,99999999' 
WAVCIS,ioos:station:WAVCIS:CSI03:3,2010-10-02T08:00:00Z,29.4412,-92.0613,10.0,5.268,32.0,,'11111222,11111222,99999999' 
WAVCIS,ioos:station:WAVCIS:CSI03:3,2010-10-02T09:00:00Z,29.4412,-92.0613,10.0,4.952,40.0,,'11111222,11111222,99999999' 
WAVCIS,ioos:station:WAVCIS:CSI03:3,2010-10-02T10:00:00Z,29.4412,-92.0613,10.0,4.675,35.0,,'11111222,11111222,99999999' 
WAVCIS,ioos:station:WAVCIS:CSI03:3,2010-10-02T11:00:00Z,29.4412,-92.0613,10.0,5.62,25.0,,'11111222,11111222,99999999' 
WAVCIS,ioos:station:WAVCIS:CSI03:3,2010-10-02T12:00:00Z,29.4412,-92.0613,10.0,5.108,30.0,,'11111222,11111222,99999999' 
WAVCIS,ioos:station:WAVCIS:CSI03:3,2010-10-02T13:00:00Z,29.4412,-92.0613,10.0,4.694,31.0,,'11111222,11111222,99999999' 
WAVCIS,ioos:station:WAVCIS:CSI03:3,2010-10-02T14:00:00Z,29.4412,-92.0613,10.0,4.442,38.0,,'11111222,11111222,99999999' 
WAVCIS,ioos:station:WAVCIS:CSI03:3,2010-10-02T15:00:00Z,29.4412,-92.0613,10.0,4.386,35.0,,'11111222,11111222,99999999' 
WAVCIS,ioos:station:WAVCIS:CSI03:3,2010-10-02T16:00:00Z,29.4412,-92.0613,10.0,3.632,34.0,,'11111222,11111222,99999999' 
WAVCIS,ioos:station:WAVCIS:CSI03:3,2010-10-02T17:00:00Z,29.4412,-92.0613,10.0,4.08,18.0,,'11111222,11111222,99999999' 
WAVCIS,ioos:station:WAVCIS:CSI03:3,2010-10-02T18:00:00Z,29.4412,-92.0613,10.0,4.108,16.0,,'11111222,11111222,99999999' 
WAVCIS,ioos:station:WAVCIS:CSI03:3,2010-10-02T19:00:00Z,29.4412,-92.0613,10.0,4.721,21.0,,'11111222,11111222,99999999' 
WAVCIS,ioos:station:WAVCIS:CSI03:3,2010-10-02T20:00:00Z,29.4412,-92.0613,10.0,3.991,28.0,,'11111222,11111222,99999999' 
WAVCIS,ioos:station:WAVCIS:CSI03:3,2010-10-02T21:00:00Z,29.4412,-92.0613,10.0,4.57,24.0,,'11111222,11111222,99999999' 
WAVCIS,ioos:station:WAVCIS:CSI03:3,2010-10-02T22:00:00Z,29.4412,-92.0613,10.0,4.697,22.0,,'11111222,11111222,99999999' 
WAVCIS,ioos:station:WAVCIS:CSI03:3,2010-10-02T23:00:00Z,29.4412,-92.0613,10.0,3.669,31.0,,'11111222,11111222,99999999' 
WAVCIS,ioos:station:WAVCIS:CSI03:3,2010-10-03T00:00:00Z,29.4412,-92.0613,10.0,2.948,33.0,,'11111222,11111222,99999999' 
WAVCIS,ioos:station:WAVCIS:CSI03:3,2010-10-03T01:00:00Z,29.4412,-92.0613,10.0,4.516,55.0,,'11111222,11111222,99999999' 
WAVCIS,ioos:station:WAVCIS:CSI03:3,2010-10-03T02:00:00Z,29.4412,-92.0613,10.0,3.703,54.0,,'11111222,11111222,99999999' 
WAVCIS,ioos:station:WAVCIS:CSI03:3,2010-10-03T03:00:00Z,29.4412,-92.0613,10.0,2.766,34.0,,'11111222,11111222,99999999' 
WAVCIS,ioos:station:WAVCIS:CSI03:3,2010-10-03T04:00:00Z,29.4412,-92.0613,10.0,4.024,18.0,,'11111222,11111222,99999999' 
WAVCIS,ioos:station:WAVCIS:CSI03:3,2010-10-03T05:00:00Z,29.4412,-92.0613,10.0,5.157,16.0,,'11111222,11111222,99999999' 
WAVCIS,ioos:station:WAVCIS:CSI03:3,2010-10-03T06:00:00Z,29.4412,-92.0613,10.0,4.802,48.0,,'11111222,11111222,99999999' 
WAVCIS,ioos:station:WAVCIS:CSI03:3,2010-10-03T07:00:00Z,29.4412,-92.0613,10.0,7.77,56.0,,'11111222,11111222,99999999' 
WAVCIS,ioos:station:WAVCIS:CSI03:3,2010-10-03T08:00:00Z,29.4412,-92.0613,10.0,7.27,55.0,,'11111222,11111222,99999999' 
WAVCIS,ioos:station:WAVCIS:CSI03:3,2010-10-03T09:00:00Z,29.4412,-92.0613,10.0,6.176,50.0,,'11111222,11111222,99999999' 
WAVCIS,ioos:station:WAVCIS:CSI03:3,2010-10-03T10:00:00Z,29.4412,-92.0613,10.0,6.612,40.0,,'11111222,11111222,99999999' 
WAVCIS,ioos:station:WAVCIS:CSI03:3,2010-10-03T11:00:00Z,29.4412,-92.0613,10.0,6.902,38.0,,'11111222,11111222,99999999' 
WAVCIS,ioos:station:WAVCIS:CSI03:3,2010-10-03T12:00:00Z,29.4412,-92.0613,10.0,6.225,39.0,,'11111222,11111222,99999999' 
WAVCIS,ioos:station:WAVCIS:CSI03:3,2010-10-03T13:00:00Z,29.4412,-92.0613,10.0,6.949,42.0,,'11111222,11111222,99999999' 
WAVCIS,ioos:station:WAVCIS:CSI03:3,2010-10-03T14:00:00Z,29.4412,-92.0613,10.0,7.43,50.0,,'11111222,11111222,99999999' 
WAVCIS,ioos:station:WAVCIS:CSI03:3,2010-10-03T15:00:00Z,29.4412,-92.0613,10.0,7.36,52.0,,'11111222,11111222,99999999' 
WAVCIS,ioos:station:WAVCIS:CSI03:3,2010-10-03T16:00:00Z,29.4412,-92.0613,10.0,6.006,48.0,,'11111222,11111222,99999999' 
WAVCIS,ioos:station:WAVCIS:CSI03:3,2010-10-03T17:00:00Z,29.4412,-92.0613,10.0,6.096,20.0,,'11111222,11111222,99999999' 
WAVCIS,ioos:station:WAVCIS:CSI03:3,2010-10-03T18:00:00Z,29.4412,-92.0613,10.0,6.273,19.0,,'11111222,11111222,99999999' 
WAVCIS,ioos:station:WAVCIS:CSI03:3,2010-10-03T19:00:00Z,29.4412,-92.0613,10.0,6.533,23.0,,'11111222,11111222,99999999' 
WAVCIS,ioos:station:WAVCIS:CSI03:3,2010-10-03T20:00:00Z,29.4412,-92.0613,10.0,5.834,25.0,,'11111222,11111222,99999999' 
WAVCIS,ioos:station:WAVCIS:CSI03:3,2010-10-03T21:00:00Z,29.4412,-92.0613,10.0,5.518,25.0,,'11111222,11111222,99999999' 
WAVCIS,ioos:station:WAVCIS:CSI03:3,2010-10-03T22:00:00Z,29.4412,-92.0613,10.0,5.095,31.0,,'11111222,11111222,99999999' 
WAVCIS,ioos:station:WAVCIS:CSI03:3,2010-10-03T23:00:00Z,29.4412,-92.0613,10.0,5.38,35.0,,'11111222,11111222,99999999' 
WAVCIS,ioos:station:WAVCIS:CSI03:3,2010-10-04T00:00:00Z,29.4412,-92.0613,10.0,5.795,42.0,,'11111222,11111222,99999999' 
WAVCIS,ioos:station:WAVCIS:CSI03:3,2010-10-04T01:00:00Z,29.4412,-92.0613,10.0,5.234,41.0,,'11111222,11111222,99999999' 
WAVCIS,ioos:station:WAVCIS:CSI03:3,2010-10-04T02:00:00Z,29.4412,-92.0613,10.0,6.613,38.0,,'11111222,11111222,99999999' 
WAVCIS,ioos:station:WAVCIS:CSI03:3,2010-10-04T03:00:00Z,29.4412,-92.0613,10.0,6.27,42.0,,'11111222,11111222,99999999' 
WAVCIS,ioos:station:WAVCIS:CSI03:3,2010-10-04T04:00:00Z,29.4412,-92.0613,10.0,7.92,52.0,,'11111222,11111222,99999999' 
WAVCIS,ioos:station:WAVCIS:CSI03:3,2010-10-04T05:00:00Z,29.4412,-92.0613,10.0,10.45,55.0,,'11111222,11111222,99999999' 
WAVCIS,ioos:station:WAVCIS:CSI03:3,2010-10-04T06:00:00Z,29.4412,-92.0613,10.0,11.28,55.0,,'11111222,11111222,99999999' 
WAVCIS,ioos:station:WAVCIS:CSI03:3,2010-10-04T07:00:00Z,29.4412,-92.0613,10.0,10.58,56.0,,'11111222,11111222,99999999' 
WAVCIS,ioos:station:WAVCIS:CSI03:3,2010-10-04T08:00:00Z,29.4412,-92.0613,10.0,9.99,56.0,,'11111222,11111222,99999999' 
WAVCIS,ioos:station:WAVCIS:CSI03:3,2010-10-04T09:00:00Z,29.4412,-92.0613,10.0,10.34,59.0,,'11111222,11111222,99999999' 
WAVCIS,ioos:station:WAVCIS:CSI03:3,2010-10-04T10:00:00Z,29.4412,-92.0613,10.0,9.68,59.0,,'11111222,11111222,99999999' 
WAVCIS,ioos:station:WAVCIS:CSI03:3,2010-10-04T11:00:00Z,29.4412,-92.0613,10.0,10.01,59.0,,'11111222,11111222,99999999' 
WAVCIS,ioos:station:WAVCIS:CSI03:3,2010-10-04T12:00:00Z,29.4412,-92.0613,10.0,9.62,64.0,,'11111222,11111222,99999999' 
WAVCIS,ioos:station:WAVCIS:CSI03:3,2010-10-04T13:00:00Z,29.4412,-92.0613,10.0,8.94,63.0,,'11111222,11111222,99999999' 
WAVCIS,ioos:station:WAVCIS:CSI03:3,2010-10-04T14:00:00Z,29.4412,-92.0613,10.0,8.73,61.0,,'11111222,11111222,99999999' 
WAVCIS,ioos:station:WAVCIS:CSI03:3,2010-10-04T15:00:00Z,29.4412,-92.0613,10.0,8.0,65.0,,'11111222,11111222,99999999' 
WAVCIS,ioos:station:WAVCIS:CSI03:3,2010-10-04T16:00:00Z,29.4412,-92.0613,10.0,7.72,57.0,,'11111222,11111222,99999999' 
WAVCIS,ioos:station:WAVCIS:CSI03:3,2010-10-04T17:00:00Z,29.4412,-92.0613,10.0,5.633,55.0,,'11111222,11111222,99999999' 
WAVCIS,ioos:station:WAVCIS:CSI03:3,2010-10-04T18:00:00Z,29.4412,-92.0613,10.0,4.234,23.0,,'11111222,11111222,99999999' 
WAVCIS,ioos:station:WAVCIS:CSI03:3,2010-10-04T19:00:00Z,29.4412,-92.0613,10.0,4.632,25.0,,'11111222,11111222,99999999' 
WAVCIS,ioos:station:WAVCIS:CSI03:3,2010-10-04T20:00:00Z,29.4412,-92.0613,10.0,4.86,17.0,,'11111222,11111222,99999999' 
WAVCIS,ioos:station:WAVCIS:CSI03:3,2010-10-04T21:00:00Z,29.4412,-92.0613,10.0,4.572,22.0,,'11111222,11111222,99999999' 
WAVCIS,ioos:station:WAVCIS:CSI03:3,2010-10-04T22:00:00Z,29.4412,-92.0613,10.0,3.971,44.0,,'11111222,11111222,99999999' 
WAVCIS,ioos:station:WAVCIS:CSI03:3,2010-10-04T23:00:00Z,29.4412,-92.0613,10.0,4.169,39.0,,'11111222,11111222,99999999' 
WAVCIS,ioos:station:WAVCIS:CSI03:3,2010-10-05T00:00:00Z,29.4412,-92.0613,10.0,4.439,33.0,,'11111222,11111222,99999999' 
WAVCIS,ioos:station:WAVCIS:CSI03:3,2010-10-05T01:00:00Z,29.4412,-92.0613,10.0,4.169,33.0,,'11111222,11111222,99999999' 
WAVCIS,ioos:station:WAVCIS:CSI03:3,2010-10-05T02:00:00Z,29.4412,-92.0613,10.0,4.104,39.0,,'11111222,11111222,99999999' 
WAVCIS,ioos:station:WAVCIS:CSI03:3,2010-10-05T03:00:00Z,29.4412,-92.0613,10.0,5.664,53.0,,'11111222,11111222,99999999' 
WAVCIS,ioos:station:WAVCIS:CSI03:3,2010-10-05T04:00:00Z,29.4412,-92.0613,10.0,6.544,55.0,,'11111222,11111222,99999999' 
WAVCIS,ioos:station:WAVCIS:CSI03:3,2010-10-05T05:00:00Z,29.4412,-92.0613,10.0,7.93,54.0,,'11111222,11111222,99999999' 
WAVCIS,ioos:station:WAVCIS:CSI03:3,2010-10-05T06:00:00Z,29.4412,-92.0613,10.0,8.79,57.0,,'11111222,11111222,99999999' 
WAVCIS,ioos:station:WAVCIS:CSI03:3,2010-10-05T07:00:00Z,29.4412,-92.0613,10.0,8.35,58.0,,'11111222,11111222,99999999' 
WAVCIS,ioos:station:WAVCIS:CSI03:3,2010-10-05T08:00:00Z,29.4412,-92.0613,10.0,8.19,58.0,,'11111222,11111222,99999999' 
WAVCIS,ioos:station:WAVCIS:CSI03:3,2010-10-05T09:00:00Z,29.4412,-92.0613,10.0,9.04,62.0,,'11111222,11111222,99999999' 
WAVCIS,ioos:station:WAVCIS:CSI03:3,2010-10-05T10:00:00Z,29.4412,-92.0613,10.0,8.88,63.0,,'11111222,11111222,99999999' 
WAVCIS,ioos:station:WAVCIS:CSI03:3,2010-10-05T11:00:00Z,29.4412,-92.0613,10.0,8.53,64.0,,'11111222,11111222,99999999' 
WAVCIS,ioos:station:WAVCIS:CSI03:3,2010-10-05T12:00:00Z,29.4412,-92.0613,10.0,8.45,63.0,,'11111222,11111222,99999999' 
WAVCIS,ioos:station:WAVCIS:CSI03:3,2010-10-05T13:00:00Z,29.4412,-92.0613,10.0,8.1,63.0,,'11111222,11111222,99999999' 
WAVCIS,ioos:station:WAVCIS:CSI03:3,2010-10-05T14:00:00Z,29.4412,-92.0613,10.0,7.11,61.0,,'11111222,11111222,99999999' 
WAVCIS,ioos:station:WAVCIS:CSI03:3,2010-10-05T15:00:00Z,29.4412,-92.0613,10.0,6.618,65.0,,'11111222,11111222,99999999' 
WAVCIS,ioos:station:WAVCIS:CSI03:3,2010-10-05T16:00:00Z,29.4412,-92.0613,10.0,6.526,64.0,,'11111222,11111222,99999999' 
WAVCIS,ioos:station:WAVCIS:CSI03:3,2010-10-05T17:00:00Z,29.4412,-92.0613,10.0,5.995,63.0,,'11111222,11111222,99999999' 
WAVCIS,ioos:station:WAVCIS:CSI03:3,2010-10-05T18:00:00Z,29.4412,-92.0613,10.0,5.562,60.0,,'11111222,11111222,99999999' 
WAVCIS,ioos:station:WAVCIS:CSI03:3,2010-10-05T19:00:00Z,29.4412,-92.0613,10.0,5.344,65.0,,'11111222,11111222,99999999' 
WAVCIS,ioos:station:WAVCIS:CSI03:3,2010-10-05T20:00:00Z,29.4412,-92.0613,10.0,2.69,29.0,,'11111222,11111222,99999999' 
WAVCIS,ioos:station:WAVCIS:CSI03:3,2010-10-05T21:00:00Z,29.4412,-92.0613,10.0,3.09,33.0,,'11111222,11111222,99999999' 
WAVCIS,ioos:station:WAVCIS:CSI03:3,2010-10-05T22:00:00Z,29.4412,-92.0613,10.0,2.658,33.0,,'11111222,11111222,99999999' 
WAVCIS,ioos:station:WAVCIS:CSI03:3,2010-10-05T23:00:00Z,29.4412,-92.0613,10.0,2.381,35.0,,'11111222,11111222,99999999' 
WAVCIS,ioos:station:WAVCIS:CSI03:3,2010-10-06T00:00:00Z,29.4412,-92.0613,10.0,2.301,29.0,,'11111222,11111222,99999999' 
WAVCIS,ioos:station:WAVCIS:CSI03:3,2010-10-06T01:00:00Z,29.4412,-92.0613,10.0,2.048,30.0,,'11111222,11111222,99999999' 
WAVCIS,ioos:station:WAVCIS:CSI03:3,2010-10-06T02:00:00Z,29.4412,-92.0613,10.0,2.934,48.0,,'11111222,11111222,99999999' 
WAVCIS,ioos:station:WAVCIS:CSI03:3,2010-10-06T03:00:00Z,29.4412,-92.0613,10.0,3.903,25.0,,'11111222,11111222,99999999' 
WAVCIS,ioos:station:WAVCIS:CSI03:3,2010-10-06T04:00:00Z,29.4412,-92.0613,10.0,3.772,38.0,,'11111222,11111222,99999999' 
WAVCIS,ioos:station:WAVCIS:CSI03:3,2010-10-06T05:00:00Z,29.4412,-92.0613,10.0,5.507,52.0,,'11111222,11111222,99999999' 
WAVCIS,ioos:station:WAVCIS:CSI03:3,2010-10-06T06:00:00Z,29.4412,-92.0613,10.0,8.55,55.0,,'11111222,11111222,99999999' 
WAVCIS,ioos:station:WAVCIS:CSI03:3,2010-10-06T07:00:00Z,29.4412,-92.0613,10.0,7.85,57.0,,'11111222,11111222,99999999' 
WAVCIS,ioos:station:WAVCIS:CSI03:3,2010-10-06T08:00:00Z,29.4412,-92.0613,10.0,5.432,56.0,,'11111222,11111222,99999999' 
WAVCIS,ioos:station:WAVCIS:CSI03:3,2010-10-06T09:00:00Z,29.4412,-92.0613,10.0,6.0,56.0,,'11111222,11111222,99999999' 
WAVCIS,ioos:station:WAVCIS:CSI03:3,2010-10-06T10:00:00Z,29.4412,-92.0613,10.0,5.527,55.0,,'11111222,11111222,99999999' 
WAVCIS,ioos:station:WAVCIS:CSI03:3,2010-10-06T11:00:00Z,29.4412,-92.0613,10.0,5.864,56.0,,'11111222,11111222,99999999' 
WAVCIS,ioos:station:WAVCIS:CSI03:3,2010-10-06T12:00:00Z,29.4412,-92.0613,10.0,5.974,56.0,,'11111222,11111222,99999999' 
WAVCIS,ioos:station:WAVCIS:CSI03:3,2010-10-06T13:00:00Z,29.4412,-92.0613,10.0,5.59,55.0,,'11111222,11111222,99999999' 
WAVCIS,ioos:station:WAVCIS:CSI03:3,2010-10-06T14:00:00Z,29.4412,-92.0613,10.0,5.944,57.0,,'11111222,11111222,99999999' 
WAVCIS,ioos:station:WAVCIS:CSI03:3,2010-10-06T15:00:00Z,29.4412,-92.0613,10.0,5.456,59.0,,'11111222,11111222,99999999' 
WAVCIS,ioos:station:WAVCIS:CSI03:3,2010-10-06T16:00:00Z,29.4412,-92.0613,10.0,5.83,64.0,,'11111222,11111222,99999999' 
WAVCIS,ioos:station:WAVCIS:CSI03:3,2010-10-06T17:00:00Z,29.4412,-92.0613,10.0,5.594,63.0,,'11111222,11111222,99999999' 
WAVCIS,ioos:station:WAVCIS:CSI03:3,2010-10-06T18:00:00Z,29.4412,-92.0613,10.0,3.963,66.0,,'11111222,11111222,99999999' 
WAVCIS,ioos:station:WAVCIS:CSI03:3,2010-10-06T19:00:00Z,29.4412,-92.0613,10.0,2.027,18.0,,'11111222,11111222,99999999' 
WAVCIS,ioos:station:WAVCIS:CSI03:3,2010-10-06T20:00:00Z,29.4412,-92.0613,10.0,1.196,81.0,,'11111222,11111222,99999999' 
WAVCIS,ioos:station:WAVCIS:CSI03:3,2010-10-06T21:00:00Z,29.4412,-92.0613,10.0,0.755,132.0,,'11111222,11111222,99999999' 
WAVCIS,ioos:station:WAVCIS:CSI03:3,2010-10-06T22:00:00Z,29.4412,-92.0613,10.0,1.484,172.0,,'11111222,11111222,99999999' 
WAVCIS,ioos:station:WAVCIS:CSI03:3,2010-10-06T23:00:00Z,29.4412,-92.0613,10.0,1.064,177.0,,'11111222,11111222,99999999' 
WAVCIS,ioos:station:WAVCIS:CSI03:3,2010-10-07T00:00:00Z,29.4412,-92.0613,10.0,1.812,281.0,,'11111222,11111222,99999999' 
WAVCIS,ioos:station:WAVCIS:CSI03:3,2010-10-07T01:00:00Z,29.4412,-92.0613,10.0,4.259,284.0,,'11111222,11111222,99999999' 
WAVCIS,ioos:station:WAVCIS:CSI03:3,2010-10-07T02:00:00Z,29.4412,-92.0613,10.0,2.92,296.0,,'11111222,11111222,99999999' 
WAVCIS,ioos:station:WAVCIS:CSI03:3,2010-10-07T03:00:00Z,29.4412,-92.0613,10.0,3.674,289.0,,'11111222,11111222,99999999' 
WAVCIS,ioos:station:WAVCIS:CSI03:3,2010-10-07T04:00:00Z,29.4412,-92.0613,10.0,4.506,287.0,,'11111222,11111222,99999999' 
WAVCIS,ioos:station:WAVCIS:CSI03:3,2010-10-07T05:00:00Z,29.4412,-92.0613,10.0,3.786,283.0,,'11111222,11111222,99999999' 
WAVCIS,ioos:station:WAVCIS:CSI03:3,2010-10-07T06:00:00Z,29.4412,-92.0613,10.0,4.127,320.0,,'11111222,11111222,99999999' 
WAVCIS,ioos:station:WAVCIS:CSI03:3,2010-10-07T07:00:00Z,29.4412,-92.0613,10.0,5.165,325.0,,'11111222,11111222,99999999' 
WAVCIS,ioos:station:WAVCIS:CSI03:3,2010-10-07T08:00:00Z,29.4412,-92.0613,10.0,6.083,333.0,,'11111222,11111222,99999999' 
WAVCIS,ioos:station:WAVCIS:CSI03:3,2010-10-07T09:00:00Z,29.4412,-92.0613,10.0,4.107,359.0,,'11111222,11111222,99999999' 
WAVCIS,ioos:station:WAVCIS:CSI03:3,2010-10-07T10:00:00Z,29.4412,-92.0613,10.0,2.194,0.0,,'11111222,11111222,99999999' 
WAVCIS,ioos:station:WAVCIS:CSI03:3,2010-10-07T11:00:00Z,29.4412,-92.0613,10.0,2.834,5.0,,'11111222,11111222,99999999' 
WAVCIS,ioos:station:WAVCIS:CSI03:3,2010-10-07T12:00:00Z,29.4412,-92.0613,10.0,2.989,23.0,,'11111222,11111222,99999999' 
WAVCIS,ioos:station:WAVCIS:CSI03:3,2010-10-07T13:00:00Z,29.4412,-92.0613,10.0,3.052,25.0,,'11111222,11111222,99999999' 
WAVCIS,ioos:station:WAVCIS:CSI03:3,2010-10-07T14:00:00Z,29.4412,-92.0613,10.0,2.333,47.0,,'11111222,11111222,99999999' 
WAVCIS,ioos:station:WAVCIS:CSI03:3,2010-10-07T15:00:00Z,29.4412,-92.0613,10.0,1.997,41.0,,'11111222,11111222,99999999' 
WAVCIS,ioos:station:WAVCIS:CSI03:3,2010-10-07T16:00:00Z,29.4412,-92.0613,10.0,1.801,31.0,,'11111222,11111222,99999999' 
WAVCIS,ioos:station:WAVCIS:CSI03:3,2010-10-07T17:00:00Z,29.4412,-92.0613,10.0,1.625,10.0,,'11111222,11111222,99999999' 
WAVCIS,ioos:station:WAVCIS:CSI03:3,2010-10-07T18:00:00Z,29.4412,-92.0613,10.0,2.528,347.0,,'11111222,11111222,99999999' 
WAVCIS,ioos:station:WAVCIS:CSI03:3,2010-10-07T19:00:00Z,29.4412,-92.0613,10.0,1.356,329.0,,'11111222,11111222,99999999' 
WAVCIS,ioos:station:WAVCIS:CSI03:3,2010-10-07T20:00:00Z,29.4412,-92.0613,10.0,0.294,120.0,,'11111222,11111222,99999999' 
WAVCIS,ioos:station:WAVCIS:CSI03:3,2010-10-07T21:00:00Z,29.4412,-92.0613,10.0,0.268,299.0,,'11111222,11111222,99999999' 
WAVCIS,ioos:station:WAVCIS:CSI03:3,2010-10-07T22:00:00Z,29.4412,-92.0613,10.0,3.158,276.0,,'11111222,11111222,99999999' 
WAVCIS,ioos:station:WAVCIS:CSI03:3,2010-10-07T23:00:00Z,29.4412,-92.0613,10.0,3.165,277.0,,'11111222,11111222,99999999' 
WAVCIS,ioos:station:WAVCIS:CSI03:3,2010-10-08T00:00:00Z,29.4412,-92.0613,10.0,3.7,277.0,,'11111222,11111222,99999999' 
WAVCIS,ioos:station:WAVCIS:CSI03:3,2010-10-08T01:00:00Z,29.4412,-92.0613,10.0,3.866,278.0,,'11111222,11111222,99999999' 
WAVCIS,ioos:station:WAVCIS:CSI03:3,2010-10-08T02:00:00Z,29.4412,-92.0613,10.0,3.224,278.0,,'11111222,11111222,99999999' 
WAVCIS,ioos:station:WAVCIS:CSI03:3,2010-10-08T03:00:00Z,29.4412,-92.0613,10.0,3.983,281.0,,'11111222,11111222,99999999' 
WAVCIS,ioos:station:WAVCIS:CSI03:3,2010-10-08T04:00:00Z,29.4412,-92.0613,10.0,4.076,280.0,,'11111222,11111222,99999999' 
WAVCIS,ioos:station:WAVCIS:CSI03:3,2010-10-08T05:00:00Z,29.4412,-92.0613,10.0,4.036,287.0,,'11111222,11111222,99999999' 
WAVCIS,ioos:station:WAVCIS:CSI03:3,2010-10-08T06:00:00Z,29.4412,-92.0613,10.0,3.506,281.0,,'11111222,11111222,99999999' 
WAVCIS,ioos:station:WAVCIS:CSI03:3,2010-10-08T07:00:00Z,29.4412,-92.0613,10.0,1.497,310.0,,'11111222,11111222,99999999' 
WAVCIS,ioos:station:WAVCIS:CSI03:3,2010-10-08T08:00:00Z,29.4412,-92.0613,10.0,3.917,321.0,,'11111222,11111222,99999999' 
WAVCIS,ioos:station:WAVCIS:CSI03:3,2010-10-08T09:00:00Z,29.4412,-92.0613,10.0,3.779,321.0,,'11111222,11111222,99999999' 
WAVCIS,ioos:station:WAVCIS:CSI03:3,2010-10-08T10:00:00Z,29.4412,-92.0613,10.0,4.238,321.0,,'11111222,11111222,99999999' 
WAVCIS,ioos:station:WAVCIS:CSI03:3,2010-10-08T11:00:00Z,29.4412,-92.0613,10.0,3.936,320.0,,'11111222,11111222,99999999' 
WAVCIS,ioos:station:WAVCIS:CSI03:3,2010-10-08T12:00:00Z,29.4412,-92.0613,10.0,3.872,322.0,,'11111222,11111222,99999999' 
WAVCIS,ioos:station:WAVCIS:CSI03:3,2010-10-08T13:00:00Z,29.4412,-92.0613,10.0,4.241,323.0,,'11111222,11111222,99999999' 
WAVCIS,ioos:station:WAVCIS:CSI03:3,2010-10-08T14:00:00Z,29.4412,-92.0613,10.0,5.525,323.0,,'11111222,11111222,99999999' 
WAVCIS,ioos:station:WAVCIS:CSI03:3,2010-10-08T15:00:00Z,29.4412,-92.0613,10.0,4.399,331.0,,'11111222,11111222,99999999' 
WAVCIS,ioos:station:WAVCIS:CSI03:3,2010-10-08T16:00:00Z,29.4412,-92.0613,10.0,3.529,328.0,,'11111222,11111222,99999999' 
WAVCIS,ioos:station:WAVCIS:CSI03:3,2010-10-08T17:00:00Z,29.4412,-92.0613,10.0,1.835,327.0,,'11111222,11111222,99999999' 
WAVCIS,ioos:station:WAVCIS:CSI03:3,2010-10-08T18:00:00Z,29.4412,-92.0613,10.0,1.087,274.0,,'11111222,11111222,99999999' 
WAVCIS,ioos:station:WAVCIS:CSI03:3,2010-10-08T19:00:00Z,29.4412,-92.0613,10.0,1.618,266.0,,'11111222,11111222,99999999' 
WAVCIS,ioos:station:WAVCIS:CSI03:3,2010-10-08T20:00:00Z,29.4412,-92.0613,10.0,2.76,258.0,,'11111222,11111222,99999999' 
WAVCIS,ioos:station:WAVCIS:CSI03:3,2010-10-08T21:00:00Z,29.4412,-92.0613,10.0,3.768,249.0,,'11111222,11111222,99999999' 
WAVCIS,ioos:station:WAVCIS:CSI03:3,2010-10-08T22:00:00Z,29.4412,-92.0613,10.0,3.925,247.0,,'11111222,11111222,99999999' 
WAVCIS,ioos:station:WAVCIS:CSI03:3,2010-10-11T18:00:00Z,29.4412,-92.0613,10.0,2.359,167.0,,'11111222,11111222,99999999' 
WAVCIS,ioos:station:WAVCIS:CSI03:3,2010-10-11T19:00:00Z,29.4412,-92.0613,10.0,1.888,194.0,,'11111222,11111222,99999999' 
WAVCIS,ioos:station:WAVCIS:CSI03:3,2010-10-11T20:00:00Z,29.4412,-92.0613,10.0,1.189,194.0,,'11111222,11111222,99999999' 
WAVCIS,ioos:station:WAVCIS:CSI03:3,2010-10-11T21:00:00Z,29.4412,-92.0613,10.0,3.831,200.0,,'11111222,11111222,99999999' 
WAVCIS,ioos:station:WAVCIS:CSI03:3,2010-10-11T22:00:00Z,29.4412,-92.0613,10.0,3.543,201.0,,'11111222,11111222,99999999' 
WAVCIS,ioos:station:WAVCIS:CSI03:3,2010-10-11T23:00:00Z,29.4412,-92.0613,10.0,2.763,199.0,,'11111222,11111222,99999999' 
WAVCIS,ioos:station:WAVCIS:CSI03:3,2010-10-12T00:00:00Z,29.4412,-92.0613,10.0,3.708,201.0,,'11111222,11111222,99999999' 
WAVCIS,ioos:station:WAVCIS:CSI03:3,2010-10-12T01:00:00Z,29.4412,-92.0613,10.0,1.058,218.0,,'11111222,11111222,99999999' 